Weather History for Dublin, Ireland

Change the Weather History Date:

Thursday, January 26, 2012

  Actual Average Record
Temperature  
Mean Temperature 38 °F -  
Max Temperature 42 °F 46 °F 53 °F (2003)
Min Temperature 33 °F 36 °F 28 °F (2000)
Degree Days  
Heating Degree Days 28    
Moisture  
Dew Point 35 °F    
Average Humidity 88    
Maximum Humidity 100    
Minimum Humidity 70    
Precipitation  
Precipitation 0.03 in 0.07 in - ()
Sea Level Pressure  
Sea Level Pressure 29.58 in    
Wind  
Wind Speed 13 mph ()    
Max Wind Speed 29 mph    
Max Gust Speed 38 mph    
Visibility 6.9 miles    
Events Rain    
Averages and records for this station are not official NWS values.
T = Trace of Precipitation, MM = Missing Value Source: Averaged Metar Reports

Daily Weather History Graph

Daily Weather History Graph

Search for Another Location

Airport:

Trip Planner

Search our weather history database for the weather conditions in past years. The results will help you decide how hot, cold, wet, or windy it might be!

Date:

Astronomy

Jan. 26, 2012 Rise Set
Actual Time 8:20 AM GMT 4:55 PM GMT
Civil Twilight 7:41 AM GMT 5:34 PM GMT
Nautical Twilight 6:58 AM GMT 6:17 PM GMT
Astronomical Twilight 6:17 AM GMT 6:58 PM GMT
Moon 9:04 AM GMT (1/26) 9:15 PM GMT (1/26)
Length of Visible Light 9h 53m
Length of Day
8h 35m
Waxing Crescent, 11% of the Moon is Illuminated
Jan 26
Waxing Crescent
Jan 31
First Quarter
Feb 7
Full
Feb 14
Last Quarter
Feb 21
New

Hourly Weather History & Observations

Time (GMT) Temp. Windchill Dew Point Humidity Pressure Visibility Wind Dir Wind Speed Gust Speed Precip Events Conditions
12:00 AM 35 °F - 33 °F 92% 29.60 in 19 mi South 6.7 mph - -   Partly Cloudy
12:00 AM 35.6 °F 30.7 °F 33.8 °F 93% 29.56 in 6.2 mi SSW 5.8 mph - N/A   Partly Cloudy
12:30 AM 35.6 °F 29.9 °F 33.8 °F 93% 29.56 in 6.2 mi South 6.9 mph - N/A   Partly Cloudy
1:00 AM 35.6 °F 30.7 °F 33.8 °F 93% 29.56 in 6.2 mi SSE 5.8 mph - N/A   Partly Cloudy
1:30 AM 35.6 °F 29.9 °F 33.8 °F 93% 29.53 in 6.2 mi SSE 6.9 mph - N/A   Partly Cloudy
2:00 AM 35.6 °F 30.7 °F 32.0 °F 87% 29.53 in 6.2 mi South 5.8 mph - N/A   Partly Cloudy
2:30 AM 37.4 °F 30.8 °F 32.0 °F 81% 29.53 in 6.2 mi SSE 9.2 mph - N/A   Scattered Clouds
3:00 AM 39.2 °F 33.0 °F 32.0 °F 75% 29.50 in 6.2 mi SSE 9.2 mph - N/A   Mostly Cloudy
3:30 AM 39.2 °F 32.0 °F 33.8 °F 81% 29.50 in 6.2 mi SSE 11.5 mph - N/A Rain Light Rain Showers
4:00 AM 39.2 °F 31.6 °F 33.8 °F 81% 29.50 in 6.2 mi SSE 12.7 mph - N/A Rain Light Rain Showers
4:30 AM 39.2 °F 30.8 °F 35.6 °F 87% 29.50 in 6.2 mi South 15.0 mph - N/A Rain Light Rain Showers
5:00 AM 35.6 °F 28.0 °F 35.6 °F 100% 29.47 in 6.2 mi South 10.4 mph - N/A Rain Light Rain Showers
5:30 AM 35.6 °F 31.7 °F 33.8 °F 93% 29.44 in 6.2 mi SE 4.6 mph - N/A   Mostly Cloudy
6:00 AM 34 °F - 34 °F 99% 29.47 in 19 mi SSE 4.5 mph - - Rain Light Rain Showers
6:00 AM 33.8 °F 30.8 °F 33.8 °F 100% 29.44 in 6.2 mi SSE 3.5 mph - N/A   Scattered Clouds
6:30 AM 33.8 °F 27.7 °F 33.8 °F 100% 29.44 in 6.2 mi SSE 6.9 mph - N/A   Scattered Clouds
7:00 AM 35.6 °F 31.7 °F 33.8 °F 93% 29.44 in 6.2 mi SSE 4.6 mph - N/A   Scattered Clouds
7:30 AM 35.6 °F 32.8 °F 35.6 °F 100% 29.44 in 6.2 mi Variable 3.5 mph - N/A Rain Light Rain Showers
8:00 AM 37.4 °F 30.8 °F 35.6 °F 93% 29.44 in 6.2 mi WSW 9.2 mph - N/A Rain Light Rain Showers
8:30 AM 37.4 °F 29.3 °F 35.6 °F 93% 29.44 in 3.1 mi SW 12.7 mph - N/A Rain Light Rain Showers
9:00 AM 37.4 °F 27.5 °F 35.6 °F 93% 29.44 in 6.2 mi WSW 18.4 mph - N/A   Mostly Cloudy
9:30 AM 37.4 °F 27.5 °F 35.6 °F 93% 29.47 in 5.6 mi WSW 18.4 mph - N/A Rain Light Rain Showers
10:00 AM 37.4 °F 25.6 °F 35.6 °F 93% 29.47 in 6.2 mi West 26.5 mph - N/A   Mostly Cloudy
10:30 AM 37.4 °F 25.6 °F 35.6 °F 93% 29.50 in 6.2 mi West 26.5 mph 38.0 mph N/A Rain Light Rain Showers
11:00 AM 37.4 °F 25.2 °F 35.6 °F 93% 29.50 in 6.2 mi West 28.8 mph - N/A   Mostly Cloudy
11:30 AM 37.4 °F 25.9 °F 35.6 °F 93% 29.53 in 6.2 mi West 25.3 mph - N/A   Mostly Cloudy
12:00 PM 39 °F - 35 °F 78% 29.56 in 25 mi WSW 24.6 mph - - Rain Light Rain Showers
12:00 PM 39.2 °F 28.5 °F 33.8 °F 81% 29.53 in 6.2 mi WSW 24.2 mph - N/A   Mostly Cloudy
12:30 PM 39.2 °F 28.3 °F 35.6 °F 87% 29.56 in 6.2 mi West 25.3 mph - N/A Rain Light Rain Showers
1:00 PM 41.0 °F 30.2 °F 35.6 °F 81% 29.56 in 6.2 mi West 27.6 mph - N/A   Mostly Cloudy
1:30 PM 41.0 °F 30.5 °F 33.8 °F 76% 29.56 in 6.2 mi West 26.5 mph - N/A   Mostly Cloudy
2:00 PM 41.0 °F 30.5 °F 33.8 °F 76% 29.59 in 6.2 mi West 26.5 mph - N/A   Mostly Cloudy
2:30 PM 41.0 °F 30.7 °F 33.8 °F 76% 29.59 in 6.2 mi WSW 25.3 mph - N/A   Scattered Clouds
3:00 PM 41.0 °F 31.6 °F 33.8 °F 76% 29.59 in 6.2 mi West 20.7 mph - N/A   Scattered Clouds
3:30 PM 41.0 °F 32.2 °F 32.0 °F 70% 29.62 in 6.2 mi WSW 18.4 mph - N/A   Scattered Clouds
4:00 PM 41.0 °F 32.2 °F 32.0 °F 70% 29.62 in 6.2 mi WSW 18.4 mph - N/A   Mostly Cloudy
4:30 PM 41.0 °F 32.2 °F 32.0 °F 70% 29.65 in 6.2 mi WSW 18.4 mph - N/A   Mostly Cloudy
5:00 PM 39.2 °F 28.7 °F 35.6 °F 87% 29.65 in 6.2 mi SW 23.0 mph - N/A Rain Light Rain Showers
5:30 PM 39.2 °F 29.3 °F 35.6 °F 87% 29.65 in 6.2 mi WSW 20.7 mph - N/A   Mostly Cloudy
6:00 PM 39 °F - 35 °F 81% 29.69 in 19 mi WSW 20.1 mph - - Rain Light Rain Showers
6:00 PM 39.2 °F 29.6 °F 35.6 °F 87% 29.65 in 6.2 mi WSW 19.6 mph - N/A   Mostly Cloudy
6:30 PM 39.2 °F 29.3 °F 35.6 °F 87% 29.68 in 6.2 mi WSW 20.7 mph - N/A   Mostly Cloudy
7:00 PM 39.2 °F 28.7 °F 35.6 °F 87% 29.68 in 6.2 mi WSW 23.0 mph - N/A Rain Light Rain Showers
7:30 PM 37.4 °F 26.1 °F 35.6 °F 93% 29.68 in 6.2 mi WSW 24.2 mph - N/A   Mostly Cloudy
8:00 PM 39.2 °F 28.5 °F 35.6 °F 87% 29.71 in 6.2 mi WSW 24.2 mph - N/A   Mostly Cloudy
8:30 PM 39.2 °F 29.0 °F 35.6 °F 87% 29.71 in 6.2 mi WSW 21.9 mph - N/A   Mostly Cloudy
9:00 PM 37.4 °F 26.6 °F 35.6 °F 93% 29.74 in 6.2 mi WSW 21.9 mph - N/A   Mostly Cloudy
9:30 PM 39.2 °F 28.5 °F 35.6 °F 87% 29.74 in 6.2 mi WSW 24.2 mph - N/A   Scattered Clouds
10:00 PM 37.4 °F 26.1 °F 35.6 °F 93% 29.77 in 6.2 mi WSW 24.2 mph - N/A   Scattered Clouds
10:30 PM 37.4 °F 26.4 °F 35.6 °F 93% 29.77 in 6.2 mi WSW 23.0 mph - N/A   Mostly Cloudy
11:00 PM 37.4 °F 26.6 °F 35.6 °F 93% 29.80 in 6.2 mi WSW 21.9 mph - N/A   Mostly Cloudy
11:30 PM 37.4 °F 26.9 °F 35.6 °F 93% 29.80 in 6.2 mi WSW 20.7 mph - N/A   Mostly Cloudy